Regional Weather Roundup
Issued by NWS Little Rock, AR

Home | Current Version | Previous Version | Graphics & Text | Print | Product List | Glossary On
Versions: 1 2 3 4 5 6 7 8 9 10 11 12 13 14 15 16 17 18 19 20 21 22 23 24 25 26 27 28 29 30 31 32
000
ASUS44 KLZK 180505
RWRLZK

WEATHER ROUNDUP FOR ARKANSAS
NATIONAL WEATHER SERVICE LITTLE ROCK AR
1200 AM CDT FRI AUG 18 2017

NOTE: "FAIR" INDICATES FEW OR NO CLOUDS BELOW 12,000 FEET WITH NO
SIGNIFICANT WEATHER AND/OR OBSTRUCTIONS TO VISIBILITY.

ARZ001-003-010-029-180600-
NORTHWEST ARKANSAS

CITY           SKY/WX    TMP DP  RH WIND       PRES   REMARKS
FAYETTEVILLE   CLEAR     69  69 100 CALM      30.03F
FORT SMITH     CLEAR     76  74  93 CALM      29.99S
HARRISON       CLEAR     70  69  97 W3        30.03R
BENTONVILLE    CLEAR     70  66  88 CALM      30.04S
ROGERS         CLEAR     70  67  90 S3        30.04S
SILOAM SPGS    MOCLDY    73  68  83 CALM      30.02F
HIGHFILL       CLEAR     69  68  96 SW5       30.03F
$$

ARZ004-005-016-180600-
NORTH CENTRAL ARKANSAS

CITY           SKY/WX    TMP DP  RH WIND       PRES   REMARKS
BATESVILLE     CLEAR     75  72  88 SW8       29.98S
FLIPPIN        CLEAR     70  64  83 CALM      29.98R
MTN HOME       CLEAR     70  70 100 CALM      29.99S
$$

ARZ040-041-180600-
WEST CENTRAL ARKANSAS

CITY           SKY/WX    TMP DP  RH WIND       PRES   REMARKS
MENA           PTCLDY    73  72  94 CALM      30.04F
MOUNT IDA      PTCLDY    73  71  93 CALM      30.00F
$$

ARZ009-017-025-026-028-180600-
NORTHEAST ARKANSAS

CITY           SKY/WX    TMP DP  RH WIND       PRES   REMARKS
JONESBORO      PTCLDY    77  75  93 W5        29.95S
NEWPORT        CLEAR     76  73  91 W8        29.97S
WALNUT RIDGE   PTCLDY    75  72  88 SW6       29.96R
BLYTHEVILLE    CLEAR     76  75  97 SW3       29.95S
$$

ARZ022-023-033-042-044-180600-
CENTRAL ARKANSAS

CITY           SKY/WX    TMP DP  RH WIND       PRES   REMARKS
LITTLE ROCK    PTCLDY    75  75 100 SW6       29.99F
N LITTLE ROCK    N/A     74  72  91 CALM      30.00S
JACKSONVILLE   CLEAR     74  73  99 CALM      29.99S
CONWAY           N/A     73  73 100 CALM      29.97F
SEARCY           N/A    N/A N/A N/A MISG        N/A
HOT SPRINGS    CLEAR     75  74  96 CALM      30.01F
RUSSELLVILLE   CLEAR     72  72 100 CALM      29.99F
CLINTON        MOCLDY    72  72 100 CALM      30.00S FOG
$$

ARZ036-180600-
EAST ARKANSAS

CITY           SKY/WX    TMP DP  RH WIND       PRES   REMARKS
WEST MEMPHIS   CLEAR     76  75  97 CALM      29.96S
$$

ARZ050-053-066-070-073-180600-
SOUTHWEST ARKANSAS

CITY           SKY/WX    TMP DP  RH WIND       PRES   REMARKS
ARKADELPHIA    FAIR      73  72  96 CALM      30.01F
CAMDEN         CLOUDY    75  72  88 CALM      30.01S
TEXARKANA      CLEAR     75  74  96 CALM      30.02F
EL DORADO      PTCLDY    75  73  93 CALM      30.02F
DE QUEEN       FOG       74  74 100 CALM      30.00S VSB 1
$$

ARZ056-057-069-180600-
SOUTHEAST ARKANSAS

CITY           SKY/WX    TMP DP  RH WIND       PRES   REMARKS
PINE BLUFF     CLEAR     75  72  90 SW3       30.00S
MONTICELLO     PTCLDY    76  72  87 W5        30.01S

$$






USA.gov is the U.S. government's official web portal to all federal, state and local government web resources and services.